^^
Caerphilly Weather Station Historical Data
 
Daily Summary for August 18, 2019 Units:  Metric    English   Both
Daily Weekly Monthly Yearly Custom
  Current: High: Low: Average:
Temperature: 13.1 °C 14.1 °C 13.1 °C 13.8 °C
Dew Point: 11.8 °C 12.5 °C 11.8 °C 12.2 °C
Humidity: 92% 92% 90% 90%
Wind Speed: 0.0km/h 9.7km/h 0.0km/h 4.3km/h
Wind Gust: 0.0km/h 16.1km/h - -
WindCalm - - SW
Pressure: 1002.2 hPa 1003.4 hPa 1002.2 hPa -
Precipitation: 0.0 mm      
Historical Graphs
 
 
Tabular Data for August 18, 2019
Time Temperature Dew Point Pressure Wind Wind Speed Wind Gust Humidity Rainfall Rate (Hourly) solar
00:05 14.1 °C 12.5 °C 1003.4 hPa SSW 4.8 km/h 12.9 km/h 90% 0.0 mm 0.00 W/m2
00:10 14.1 °C 12.4 °C 1003.2 hPa SSW 3.2 km/h 8.0 km/h 90% 0.0 mm 0.00 W/m2
00:15 14.1 °C 12.4 °C 1003.0 hPa SSW 8.0 km/h 11.3 km/h 90% 0.0 mm 0.00 W/m2
00:20 14.1 °C 12.4 °C 1003.1 hPa SSW 8.0 km/h 14.5 km/h 90% 0.0 mm 0.00 W/m2
00:25 14.1 °C 12.5 °C 1003.2 hPa SW 4.8 km/h 11.3 km/h 90% 0.0 mm 0.00 W/m2
00:30 14.1 °C 12.4 °C 1003.0 hPa SSW 4.8 km/h 14.5 km/h 90% 0.0 mm 0.00 W/m2
00:35 14.1 °C 12.4 °C 1002.9 hPa SSW 3.2 km/h 11.3 km/h 90% 0.0 mm 0.00 W/m2
00:45 14.1 °C 12.4 °C 1003.1 hPa SSW 8.0 km/h 12.9 km/h 90% 0.0 mm 0.00 W/m2
00:50 14.1 °C 12.4 °C 1003.0 hPa SSW 8.0 km/h 14.5 km/h 90% 0.0 mm 0.00 W/m2
00:55 14.1 °C 12.4 °C 1003.0 hPa SW 4.8 km/h 11.3 km/h 90% 0.0 mm 0.00 W/m2
01:00 14.1 °C 12.4 °C 1002.9 hPa SSW 4.8 km/h 14.5 km/h 90% 0.0 mm 0.00 W/m2
01:05 14.0 °C 12.4 °C 1002.9 hPa SSW 9.7 km/h 16.1 km/h 90% 0.0 mm 0.00 W/m2
01:10 14.0 °C 12.4 °C 1002.7 hPa SSW 4.8 km/h 9.7 km/h 90% 0.0 mm 0.00 W/m2
01:15 13.9 °C 12.3 °C 1002.7 hPa SSW 3.2 km/h 9.7 km/h 90% 0.0 mm 0.00 W/m2
01:20 13.9 °C 12.3 °C 1002.8 hPa SW 4.8 km/h 14.5 km/h 90% 0.0 mm 0.00 W/m2
01:25 13.9 °C 12.3 °C 1002.8 hPa SW 8.0 km/h 9.7 km/h 90% 0.0 mm 0.00 W/m2
01:30 13.9 °C 12.3 °C 1002.7 hPa SW 4.8 km/h 11.3 km/h 90% 0.0 mm 0.00 W/m2
01:35 13.9 °C 12.3 °C 1002.8 hPa SSW 8.0 km/h 14.5 km/h 90% 0.0 mm 0.00 W/m2
01:40 13.9 °C 12.3 °C 1002.7 hPa SSW 4.8 km/h 12.9 km/h 90% 0.0 mm 0.00 W/m2
01:45 13.8 °C 12.2 °C 1002.8 hPa SW 8.0 km/h 14.5 km/h 90% 0.0 mm 0.00 W/m2
01:50 13.8 °C 12.2 °C 1002.6 hPa SW 9.7 km/h 14.5 km/h 90% 0.0 mm 0.00 W/m2
01:55 13.8 °C 12.2 °C 1002.5 hPa SW 3.2 km/h 14.5 km/h 90% 0.0 mm 0.00 W/m2
02:00 13.8 °C 12.2 °C 1002.4 hPa WSW 3.2 km/h 6.4 km/h 90% 0.0 mm 0.00 W/m2
02:05 13.8 °C 12.2 °C 1002.5 hPa WSW 3.2 km/h 8.0 km/h 90% 0.0 mm 0.00 W/m2
02:10 13.7 °C 12.1 °C 1002.4 hPa SW 3.2 km/h 6.4 km/h 90% 0.0 mm 0.00 W/m2
02:15 13.6 °C 11.9 °C 1002.4 hPa WSW 3.2 km/h 4.8 km/h 90% 0.0 mm 0.00 W/m2
02:20 13.5 °C 11.9 °C 1002.4 hPa WSW 1.6 km/h 4.8 km/h 90% 0.0 mm 0.00 W/m2
02:25 13.4 °C 11.8 °C 1002.3 hPa WSW 1.6 km/h 3.2 km/h 90% 0.0 mm 0.00 W/m2
02:30 13.3 °C 11.9 °C 1002.3 hPa Calm   3.2 km/h 91% 0.0 mm 0.00 W/m2
02:35 13.3 °C 11.8 °C 1002.3 hPa Calm   1.6 km/h 91% 0.0 mm 0.00 W/m2
02:40 13.2 °C 11.8 °C 1002.3 hPa Calm   1.6 km/h 91% 0.0 mm 0.00 W/m2
02:45 13.2 °C 11.8 °C 1002.2 hPa Calm   1.6 km/h 91% 0.0 mm 0.00 W/m2
02:50 13.2 °C 11.9 °C 1002.3 hPa Calm   1.6 km/h 92% 0.0 mm 0.00 W/m2
02:55 13.1 °C 11.8 °C 1002.2 hPa Calm     92% 0.0 mm 0.00 W/m2
Caerphilly,Wales
Compliments of Weather Underground - 4 mb